Location: Asheville, NC
(35.6000°N, 82.5500°W)
Time: 20:48:01
(UTC-04:00)

AAUSAT CUBESAT 2 - Pass Details

Date: 11 March 2018
Orbit: 576 x 592 km, 97.5° (Epoch: 20 June)

Event Time Altitude Azimuth Distance (km) Brightness Sun altitude
Rises 19:54:20 0° 145° (SE) 2,780 ? -4.9°
Reaches altitude 10° 19:56:38 10° 135° (SE) 1,887 ? -5.4°
Maximum altitude 20:00:15 31° 72° (ENE) 1,026 ? -6.1°
Drops below altitude 10° 20:03:55 10° 10° (N) 1,908 ? -6.8°
Sets 20:06:15 0° 0° (N) 2,815 ? -7.3°
